Regional Weather Roundup
Issued by NWS

Home | Current Version | Previous Version | Graphics & Text | Print | Product List | Glossary On
Versions: 1 2 3 4 5 6 7 8 9 10 11 12 13 14 15 16 17 18 19 20 21 22 23 24 25 26 27 28 29 30 31 32 33 34 35 36 37 38 39 40 41 42 43 44 45 46 47 48 49 50
853
ASUS44 KLIX 220305
RWRLA
LOUISIANA WEATHER ROUNDUP
NATIONAL WEATHER SERVICE NEW ORLEANS LA
1000 PM CDT THU AUG 21 2014

NOTE: "FAIR" INDICATES FEW OR NO CLOUDS BELOW 12,000 FEET WITH NO
      SIGNIFICANT WEATHER AND/OR OBSTRUCTIONS TO VISIBILITY.
      SKY/WX - SKY CONDITION AND SIGNIFICANT WEATHER.
      TMP - AIR TEMPERATURE.    DP   - DEWPOINT TEMPERATURE.
      RH  - RELATIVE HUMIDITY.  PRES - PRESSURE.
      HX  - HEAT INDEX.         WCI  - WIND CHILL INDEX.

*  THESE STATIONS ARE NOT NWS OR FAA STATIONS AND ARE NOT UNDER
   NWS QUALITY CONTROL.

LAZ040-048-061>063-065-066-069-220400-
SOUTHEAST LOUISIANA

CITY           SKY/WX    TMP DP  RH WIND       PRES   REMARKS
N.O. AUDUBON   NOT AVBL
N.O. INTL ARPT CLOUDY    79  72  79 CALM      30.11S
N.O. LAKEFRONT CLOUDY    81  75  82 NW5       30.12S
N.O. DOWNTOWN* FAIR      82  70  65 CALM      30.12F
SLIDELL        CLOUDY    80  74  81 CALM      30.11R
BATON ROUGE    MOCLDY    76  74  93 CALM      30.11F
BOOTHVILLE     PTCLDY    84  78  82 CALM      30.12S HX  95
BELLE CHASSE   CLOUDY    76  73  91 SW3       30.11S
BOGALUSA*      FAIR      81  73  78 CALM      30.12F
GALLIANO*      NOT AVBL
NEW ROADS*     FAIR      75  73  95 CALM      30.12F
GONZALES*      FAIR      76  76 100 CALM      30.11F
HAMMOND*       CLOUDY    77  72  83 CALM      30.12F
HOUMA*         CLOUDY    76  72  87 CALM      30.12S
PORT FOURCHON* CLOUDY    82  75  78 W6        30.14S

$$

LAZ041-044-053-054-220400-
SOUTHWEST LOUISIANA

CITY           SKY/WX    TMP DP  RH WIND       PRES   REMARKS
LAKE CHARLES   MOCLDY    80  76  87 S3        30.10R
LAFAYETTE      MOCLDY    77  75  93 S3        30.11S
PATTERSON      MOCLDY    75  73  94 CALM        N/A
SALT POINT       N/A     81  77  88 CALM      30.12R
NEW IBERIA     MOCLDY    76  74  93 SE5       30.13R
CHENAULT AIRPK MOCLDY    79  76  91 SE3       30.11R

$$

LAZ027-028-220400-
CENTRAL LOUISIANA

CITY           SKY/WX    TMP DP  RH WIND       PRES   REMARKS
FORT POLK      NOT AVBL
ALEXANDRIA INT CLOUDY    75  74  96 S3        30.07S
ALEXANDRIA     CLOUDY    76  73  91 SE3       30.09R

$$

LAZ001-002-220400-
NORTHWEST LOUISIANA

CITY           SKY/WX    TMP DP  RH WIND       PRES   REMARKS
SHREVEPORT     MOCLDY    83  74  74 S8        30.04R
BARKSDALE AFB  MOCLDY    80  73  78 S10       30.05R
DTN SHREVEPORT MOCLDY    81  73  76 S9        30.04R

$$

LAZ014-016-220400-
NORTHEAST LOUISIANA

CITY           SKY/WX    TMP DP  RH WIND       PRES   REMARKS
MONROE         CLOUDY    75  70  84 SW3       30.08S
TALLULAH       CLOUDY    75  73  93 CALM      30.07S

$$




USA.gov is the U.S. government's official web portal to all federal, state and local government web resources and services.